• In Deutschland
  • Länderverzeichnis
  • Für 7 Tage
  • Wassertemperatur
  • Satellitenkarten
  • Wetterkarte
  • Widgets
  • user-avatar
    Anmelden

    Stündliche Wetter Leticia

    Heute, 25 September, Montag

    Zeit Temperatur Niederschläge Wind Luftdruck Luftfeuchtigkeit
    00:00 +22°C° 0 mm 0 m/S 752 mmHg 98%
    01:00 +22°C° 0 mm 0 m/S 752 mmHg 98%
    02:00 +22°C° 0 mm 0 m/S 752 mmHg 98%
    03:00 +22°C° 0 mm 0 m/S 752 mmHg 98%
    04:00 +22°C° 0 mm 0 m/S 752 mmHg 98%
    05:00 +22°C° 0 mm 0 m/S 752 mmHg 97%
    06:00 +23°C° 0 mm 0 m/S 753 mmHg 96%
    07:00 +24°C° 0 mm 0 m/S 753 mmHg 94%
    08:00 +27°C° 0 mm 0 m/S 753 mmHg 80%
    09:00 +30°C° 0 mm 0 m/S 753 mmHg 66%
    10:00 +33°C° 0 mm 0 m/S 753 mmHg 53%
    11:00 +33°C° 0 mm 0 m/S 752 mmHg 52%
    12:00 +33°C° 0 mm 0 m/S 751 mmHg 50%
    13:00 +33°C° 0 mm 0 m/S 751 mmHg 49%
    14:00 +32°C° 0,2 mm 0 m/S 750 mmHg 57%
    15:00 +31°C° 0,2 mm 0 m/S 749 mmHg 64%
    16:00 +31°C° 0,2 mm 1 m/S 749 mmHg 71%
    17:00 +29°C° 0,3 mm 1 m/S 749 mmHg 79%
    18:00 +28°C° 0,3 mm 1 m/S 749 mmHg 86%
    19:00 +26°C° 0,3 mm 1 m/S 750 mmHg 94%
    20:00 +26°C° 0,1 mm 1 m/S 750 mmHg 94%
    21:00 +23°C° 0,1 mm 0 m/S 751 mmHg 95%
    22:00 +23°C° 0,1 mm 0 m/S 751 mmHg 95%
    23:00 +23°C° 0,4 mm 0 m/S 751 mmHg 96%

    Morgen, 26 September, Dienstag

    Zeit Temperatur Niederschläge Wind Luftdruck Luftfeuchtigkeit
    00:00 +23°C° 0,4 mm 0 m/S 751 mmHg 96%
    01:00 +22°C° 0,4 mm 0 m/S 750 mmHg 97%
    02:00 +22°C° 0,3 mm 0 m/S 750 mmHg 97%
    03:00 +22°C° 0,3 mm 0 m/S 750 mmHg 98%
    04:00 +22°C° 0,3 mm 0 m/S 750 mmHg 98%
    05:00 +23°C° 0,3 mm 0 m/S 751 mmHg 96%
    06:00 +24°C° 0,3 mm 0 m/S 751 mmHg 95%
    07:00 +24°C° 0,3 mm 0 m/S 752 mmHg 93%
    08:00 +26°C° 1 mm 0 m/S 752 mmHg 85%
    09:00 +29°C° 1 mm 0 m/S 752 mmHg 77%
    10:00 +33°C° 1 mm 1 m/S 752 mmHg 69%
    11:00 +34°C° 0,3 mm 1 m/S 751 mmHg 63%
    12:00 +35°C° 0,3 mm 1 m/S 750 mmHg 56%
    13:00 +36°C° 0,3 mm 1 m/S 750 mmHg 50%
    14:00 +34°C° 1,7 mm 1 m/S 749 mmHg 61%
    15:00 +32°C° 1,7 mm 1 m/S 749 mmHg 72%
    16:00 +30°C° 1,7 mm 1 m/S 748 mmHg 83%
    17:00 +29°C° 0,3 mm 1 m/S 749 mmHg 87%
    18:00 +28°C° 0,3 mm 1 m/S 749 mmHg 90%
    19:00 +26°C° 0,3 mm 1 m/S 749 mmHg 94%
    20:00 +24°C° 0 mm 0 m/S 749 mmHg 94%
    21:00 +24°C° 0 mm 0 m/S 750 mmHg 95%
    22:00 +23°C° 0 mm 0 m/S 750 mmHg 95%
    23:00 +23°C° 0,3 mm 0 m/S 750 mmHg 95%

    übermorgen, 27 September, Mittwoch

    Zeit Temperatur Niederschläge Wind Luftdruck Luftfeuchtigkeit
    00:00 +23°C° 0,3 mm 0 m/S 749 mmHg 96%
    01:00 +23°C° 0,3 mm 0 m/S 749 mmHg 96%
    02:00 +23°C° 0 mm 0 m/S 749 mmHg 96%
    03:00 +23°C° 0 mm 0 m/S 749 mmHg 96%
    04:00 +23°C° 0 mm 0 m/S 749 mmHg 96%
    05:00 +23°C° 0 mm 0 m/S 750 mmHg 95%
    06:00 +24°C° 0 mm 0 m/S 750 mmHg 95%
    07:00 +24°C° 0 mm 0 m/S 751 mmHg 94%
    08:00 +27°C° 0 mm 0 m/S 751 mmHg 82%
    09:00 +29°C° 0 mm 0 m/S 751 mmHg 71%
    10:00 +32°C° 0 mm 0 m/S 752 mmHg 60%
    11:00 +34°C° 0,1 mm 1 m/S 751 mmHg 56%
    12:00 +35°C° 0,1 mm 1 m/S 749 mmHg 52%
    13:00 +36°C° 0,1 mm 1 m/S 748 mmHg 48%
    14:00 +35°C° 0 mm 1 m/S 748 mmHg 50%
    15:00 +35°C° 0 mm 1 m/S 748 mmHg 53%
    16:00 +32°C° 0 mm 0 m/S 748 mmHg 56%
    17:00 +30°C° 0 mm 0 m/S 748 mmHg 63%
    18:00 +28°C° 0 mm 0 m/S 749 mmHg 70%
    19:00 +26°C° 0 mm 0 m/S 749 mmHg 76%
    20:00 +28°C° 0,1 mm 1 m/S 749 mmHg 78%
    21:00 +27°C° 0,1 mm 1 m/S 750 mmHg 80%
    22:00 +27°C° 0,1 mm 1 m/S 750 mmHg 81%
    23:00 +24°C° 0,1 mm 0 m/S 749 mmHg 83%

    28 September, Donnerstag

    Zeit Temperatur Niederschläge Wind Luftdruck Luftfeuchtigkeit
    00:00 +24°C° 0,1 mm 0 m/S 749 mmHg 85%
    01:00 +24°C° 0,1 mm 0 m/S 749 mmHg 86%
    02:00 +23°C° 0,2 mm 0 m/S 749 mmHg 88%
    03:00 +23°C° 0,2 mm 0 m/S 749 mmHg 90%
    04:00 +23°C° 0,2 mm 0 m/S 749 mmHg 92%
    05:00 +23°C° 0,1 mm 0 m/S 749 mmHg 90%
    06:00 +24°C° 0,1 mm 0 m/S 750 mmHg 88%
    07:00 +25°C° 0,1 mm 0 m/S 751 mmHg 87%
    08:00 +28°C° 0,2 mm 0 m/S 751 mmHg 75%
    09:00 +31°C° 0,2 mm 0 m/S 751 mmHg 63%
    10:00 +34°C° 0,2 mm 0 m/S 751 mmHg 51%
    11:00 +36°C° 0,5 mm 1 m/S 750 mmHg 54%
    12:00 +35°C° 0,5 mm 1 m/S 749 mmHg 57%
    13:00 +34°C° 0,5 mm 1 m/S 749 mmHg 60%
    14:00 +33°C° 0,7 mm 1 m/S 748 mmHg 67%
    15:00 +32°C° 0,7 mm 1 m/S 748 mmHg 74%
    16:00 +31°C° 0,7 mm 1 m/S 748 mmHg 80%
    17:00 +30°C° 0,1 mm 1 m/S 748 mmHg 84%
    18:00 +28°C° 0,1 mm 1 m/S 749 mmHg 88%
    19:00 +27°C° 0,1 mm 1 m/S 750 mmHg 91%
    20:00 +25°C° 0 mm 0 m/S 750 mmHg 91%
    21:00 +25°C° 0 mm 0 m/S 750 mmHg 92%
    22:00 +24°C° 0 mm 0 m/S 750 mmHg 92%
    23:00 +24°C° 0 mm 0 m/S 749 mmHg 92%

    29 September, Freitag

    Zeit Temperatur Niederschläge Wind Luftdruck Luftfeuchtigkeit
    00:00 +24°C° 0 mm 0 m/S 749 mmHg 92%
    01:00 +24°C° 0 mm 0 m/S 748 mmHg 92%
    02:00 +23°C° 0 mm 0 m/S 748 mmHg 92%
    03:00 +23°C° 0 mm 0 m/S 748 mmHg 93%
    04:00 +23°C° 0 mm 0 m/S 748 mmHg 93%
    05:00 +24°C° 0 mm 0 m/S 749 mmHg 90%
    06:00 +25°C° 0 mm 0 m/S 750 mmHg 87%
    07:00 +26°C° 0 mm 0 m/S 751 mmHg 83%
    08:00 +28°C° 0,9 mm 0 m/S 752 mmHg 80%
    09:00 +29°C° 0,9 mm 0 m/S 752 mmHg 77%
    10:00 +31°C° 0,9 mm 0 m/S 752 mmHg 74%
    11:00 +32°C° 0,7 mm 0 m/S 751 mmHg 67%
    12:00 +34°C° 0,7 mm 1 m/S 750 mmHg 60%
    13:00 +35°C° 0,7 mm 1 m/S 749 mmHg 54%
    14:00 +35°C° 0 mm 1 m/S 749 mmHg 54%
    15:00 +35°C° 0 mm 1 m/S 748 mmHg 55%
    16:00 +32°C° 0 mm 0 m/S 748 mmHg 56%
    17:00 +33°C° 0 mm 1 m/S 748 mmHg 62%
    18:00 +31°C° 0 mm 1 m/S 749 mmHg 69%
    19:00 +29°C° 0 mm 1 m/S 749 mmHg 75%
    20:00 +28°C° 0 mm 1 m/S 749 mmHg 78%
    21:00 +28°C° 0 mm 1 m/S 749 mmHg 80%
    22:00 +27°C° 0 mm 1 m/S 749 mmHg 82%
    23:00 +25°C° 0,1 mm 0 m/S 749 mmHg 85%

    30 September, Samstag

    Zeit Temperatur Niederschläge Wind Luftdruck Luftfeuchtigkeit
    00:00 +24°C° 0,1 mm 0 m/S 749 mmHg 88%
    01:00 +24°C° 0,1 mm 0 m/S 749 mmHg 90%
    02:00 +24°C° 0,2 mm 0 m/S 749 mmHg 92%
    03:00 +23°C° 0,2 mm 0 m/S 749 mmHg 94%
    04:00 +23°C° 0,2 mm 0 m/S 749 mmHg 95%
    05:00 +24°C° 0 mm 0 m/S 750 mmHg 94%
    06:00 +24°C° 0 mm 0 m/S 750 mmHg 92%
    07:00 +25°C° 0 mm 0 m/S 751 mmHg 90%
    08:00 +27°C° 0 mm 0 m/S 751 mmHg 79%
    09:00 +31°C° 0 mm 1 m/S 751 mmHg 68%
    10:00 +33°C° 0 mm 1 m/S 751 mmHg 57%
    11:00 +34°C° 0,3 mm 1 m/S 750 mmHg 57%
    12:00 +35°C° 0,3 mm 1 m/S 749 mmHg 56%
    13:00 +36°C° 0,3 mm 1 m/S 748 mmHg 55%
    14:00 +35°C° 0,4 mm 1 m/S 748 mmHg 60%
    15:00 +33°C° 0,4 mm 1 m/S 748 mmHg 65%
    16:00 +30°C° 0,4 mm 0 m/S 748 mmHg 70%
    17:00 +29°C° 0,1 mm 0 m/S 748 mmHg 75%
    18:00 +27°C° 0,1 mm 0 m/S 748 mmHg 80%
    19:00 +26°C° 0,1 mm 0 m/S 748 mmHg 85%
    20:00 +25°C° 0,1 mm 0 m/S 748 mmHg 85%
    21:00 +25°C° 0,1 mm 0 m/S 749 mmHg 85%
    22:00 +25°C° 0,1 mm 0 m/S 749 mmHg 85%
    23:00 +24°C° 1,4 mm 0 m/S 749 mmHg 89%
    Mehr zeigen